sat.trackr.live / text

‹ back to catalog

STARLINK-32183

NORAD 60433 · 2024-144J

PAYLOAD ACTIVE UNKNOWN

§ Identity

Operator
Country
US
Launch date
2024-08-12
Launch site
AFETR
Launch vehicle
Mass (kg)
RCS (m²)

Purposes: comms

External: N2YO · Heavens-Above · Gunter

§ Orbital elements

Epoch: 2026-09-21T19:09:10.017504Z

Period
93.85 min
Inclination
53.1616°
Eccentricity
0.0000968
Mean motion
15.34397174 rev/d
Perigee alt
462.0 km
Apogee alt
463.4 km
Semi-major
6,840.8 km
B*
-1.6886e-5
RAAN
23.4341°
Arg perigee
64.6203°
Mean anomaly
295.4900°
Rev number
11,937

§ Raw data

STARLINK-321831 60433U 24144J   26264.79803261 -.00000946  00000+0 -16886-4 0  99902 60433  53.1616  23.4341 0000968  64.6203 295.4900 15.34397174119375

JSON: /api/v1/satellites/60433 · /tle

For live sub-satellite position, see the globe view (requires WebGL).

§ Visibility from observer

Set your observer location to see the next 7 days of passes ≥ 10°. The values pass through the URL so the page stays shareable.

No JS? Fill the form by hand. The geolocation button needs JavaScript.